Find Starlink 31640

NORAD ID: 59748 Int'l Des: 2024-090 Owner: SPXS Country: US Constellation: starlink operational
LEOCIRCULAR

实时位置

正在加载3D地球...

关于 Starlink 31640

正在加载描述...

即将过境

Passes for default location (London). Set your location on the main map for personalized predictions.

高度历史

Loading altitude history...

两行轨道根数

1 59748U 24090U 26124.55625526 .00001334 00000-0 58009-4 0 9996
2 59748 43.0015 228.0369 0001443 260.3720 99.6969 15.27580505111986
Epoch: May 4, 2026 • Age: 12 hours

当前状态

高度 494.4 km
速度 7.62 km/s
星下点 -40.50°S, 87.28°W
发射日期 May 13, 2024
运行时间 1.9 years
类型 internet

技术详情

分类 Payload
质量 730.00 kg
干质量 700.00 kg
总质量 730.00 kg
长度 0.30 m
直径 4.10 m
跨度 29.00 m
形状 Box + pan
制造商 SPXS
平台类型 Starlink V2M
阶段状态 In Orbit
所有者/国家 SPXS/US

Most Searched